Weather in Newark

United States     40°43′49″N   74°10′44″W
temp.,
°C
wind,
m/s
gust,
m/s
humid.,
%
clouds,
%
prec.,
mm/h
press.,
hPa
HPBL,
m
23 may, mon
mon2323:00+21nw41083100 1.3 1017512
02:00+17nnw5106696 1.4 1018437
05:00+15nnw51162100 0.0 1020500
08:00+16n4657100 0.0 1022611
11:00+21n443998 0.0 10221147
14:00+24n443073 0.0 10211592
17:00+24nne3329100 0.0 10211750
20:00+21ne2537100 0.0 1022377
24 may, tue
tue2423:00+18se2449100 0.0 1023356
02:00+17sse2363100 0.0 1024374
05:00+15ese2370100 0.0 1024337
08:00+17ese2357100 0.0 1025726
11:00+20se4443100 0.0 10251490
14:00+20sse553717 0.0 10251239
17:00+19sse453996 0.0 10251010
20:00+16sse3547100 0.0 1026501
25 may, wed
wed2523:00+15se355199 0.0 1026464
02:00+15ese2458100 0.0 1026459
05:00+15ese2458100 0.0 1026498
08:00+15e2455100 0.0 1027551
11:00+17se3447100 0.0 1028714
14:00+19se4540100 0.0 1028837
17:00+18se454095 0.0 1027669
20:00+15se355087 0.0 1027420
26 may, thu
thu2623:00+14se266071 0.0 1028378
02:00+14sse25676 0.0 1026334
05:00+13se138116 0.0 1026103
08:00+16sse3672100 0.0 1026570
11:00+16sse3777100 0.0 1025585
14:00+16sse3787100 0.3 1023469
17:00+16se3995100 0.6 1021480
20:00+16se2897100 0.7 1020427
27 may, fri
fri2723:00+16ssw1599100 0.0 1019267
02:00+16wsw139957 0.1 1017104
05:00+16ssw1899100 0.0 1016316
08:00+18sw279388 0.1 1016326
11:00+24sw487296 0.1 1015869
14:00+28sw6115389 0.1 10121519
17:00+29sw6104994 0.0 10111807
20:00+23sw51181100 1.1 1012716